OPS 4682 DEB, 38387

Orbit data source: Space-Track

OPS 4682 DEB, 38387 is space debris in LEO originally from a launch on Sat, 03 Apr 1965 UTC launched from the Air Force Western Test Range (AFWTR). Debris objects in space refer to the collection of defunct objects orbiting the Earth. Examples of debris include non-operational satellites, rocket bodies, and fragments generated from explosions, collisions, or faulty payload assembly.

Loading next visibility...
Identifier
38387, 1965-027CQ
Orbit
LEO
Country
Flag of USUS
Related business
Manufacturer
Unknown
Mission
Spacecraft
Bus & Motor
Unknown
Mass
Unknown
Launch date (UTC)
1965-04-03 (61 years ago)
Launch vehicle
Unknown
Launch site
Air Force Western Test Range (AFWTR)
Object type
Payload
Rocket body
Debris
Shape & HBR
Unknown shape, 0.1 m
Radar Cross Section
Small (<0.1 m²)

Expand to show TLE details & history
Last TLE update: 5 days ago

TLE from 5 days ago
0 OPS 4682 DEB
1 38387U 65027CQ  26031.18095377  .00000051  00000-0  15320-3 0  9991
2 38387  90.2440   2.2827 0025266 102.9744 257.4200 12.96393147586092
Epoch: 2026-01-31T04:20Z
TLE epoch observation values (Epoch: 2026-01-31T04:20:34.405Z)
Latitude
0.00001°
Longitude
166.73071°
Altitude
1,283.389 km
Speed
7.212 km/s
True Right ascension
00h 09m 07s
True Declination
0° 00' 00"
Sunlit
Object was in daylight at epoch
Visualization orbit readout
Latitude
Unknown
Longitude
Unknown
Altitude
Unknown
Speed
Unknown
Apparent Right ascension
Unknown
Apparent Declination
Unknown
Sunlit
N/A
Visualization observer readout
Local Sidereal Time
11:56:59
Azimuth
Unknown
Elevation
Unknown
Doppler factor
Unknown
Orbital elements
Apogee altitude
1,292.716 km
Perigee altitude
1,254.051 km
Semi-major axis
7,651.521 km
Eccentricity
0.00253
Inclination
90.244°
RAAN
2.2827°
Arg. of periapsis
102.9744°
True anomaly
257.13762°
Mean anomaly
257.42°
Eccentric anomaly
257.27879°
Mean motion
3.24281 °/min
Orbital period
111.01 mins
BSTAR
0.0001532
Loading maneuver chart data...
Computing Atmospheric mass density...
Loading historical data...
Loading historical data...
Loading historical data...
Loading historical data...
Loading historical data...
Loading historical data...
Loading historical data...

Documentation

Showing up to 5 results
|